Wind_Speed
8 13 16 18 19 20 21 20 18 16 14 12 10 8 6 4 3 2 1 1 0 1 2 3 4 5 5 5 5 5 6 7 7 8 8 8 9 9 10 10 11 13 14
7 9 13 15 17 18 19 18 16 16 14 12 10 8 6 4 3 2 2 1 0 1 2 3 3 4 4 4 5 6 7 7 8 8 8 8 8 9 9 10 11 12 13
6 9 10 11 14 16 16 17 16 15 13 11 10 8 7 5 4 3 2 2 1 1 2 2 3 4 4 4 5 6 7 8 9 9 9 9 10 10 11 11 12 13 14
4 7 9 11 13 14 14 15 14 14 13 11 10 8 7 6 5 4 3 2 1 1 2 3 3 4 4 5 6 7 8 9 10 10 11 11 11 12 12 13 14 15 15
2 5 8 9 10 12 12 13 13 13 12 11 9 9 7 6 6 4 4 3 3 3 3 3 4 5 5 6 7 8 9 10 10 11 11 11 12 13 13 14 14 15 16
2 4 6 8 9 10 11 12 12 12 11 11 10 9 8 7 6 5 5 5 4 4 4 5 5 6 6 7 7 9 10 10 11 12 12 12 13 14 14 14 15 15 16
1 4 5 7 8 9 11 11 11 11 11 11 10 9 9 8 7 7 6 6 6 6 6 6 6 7 8 8 9 10 11 11 12 13 13 14 14 14 15 15 16 17 18
2 4 6 7 8 9 10 11 11 12 11 11 10 10 9 9 8 8 8 8 8 8 8 8 8 9 10 10 11 12 12 13 14 14 15 15 16 16 16 16 17 18 19
4 5 6 8 9 10 11 12 12 12 12 11 11 11 11 10 10 10 10 10 10 10 11 11 11 11 12 13 13 14 15 15 16 16 16 17 18 18 19 19 19 20 21
6 6 7 8 9 10 11 12 12 13 13 12 12 13 13 12 12 13 13 13 13 13 13 13 14 14 15 15 16 17 17 18 18 19 19 19 20 20 21 21 21 22 22
7 8 8 9 9 10 12 13 13 13 13 14 14 14 15 15 15 15 16 16 16 16 16 17 17 17 17 18 18 19 19 20 20 21 21 21 22 22 22 23 22 23 23
9 10 10 11 11 12 13 13 14 15 15 16 16 16 17 18 18 19 19 19 19 20 20 20 20 20 20 20 21 21 21 22 22 23 23 23 23 24 24 24 24 24 25
11 11 11 12 12 13 14 15 16 16 17 18 18 19 20 21 21 22 22 22 23 22 22 22 22 23 23 23 23 23 23 24 24 25 25 25 26 26 26 26 26 26 26
13 13 13 14 13 14 15 16 17 18 19 19 20 21 22 23 24 24 25 25 25 24 24 24 25 25 25 25 26 26 26 26 26 27 27 27 27 27 28 28 28 28 29
15 15 15 15 16 16 17 18 19 20 21 21 22 23 24 25 25 26 26 27 26 26 26 26 27 27 27 27 27 27 27 28 28 29 29 29 29 29 29 29 30 30 30
17 17 17 17 17 18 18 19 20 21 22 23 24 25 25 26 27 27 28 28 28 28 28 28 28 29 29 29 29 29 30 30 30 30 31 31 31 30 31 31 32 32 32
19 20 20 20 20 20 21 22 22 23 24 25 26 26 27 27 28 28 29 29 29 29 29 30 30 30 30 31 31 31 32 32 32 32 33 33 33 33 33 33 34 34 35
22 23 23 23 23 23 23 24 24 25 25 26 27 28 28 28 29 29 30 30 31 31 31 32 32 32 32 33 33 34 34 34 34 34 35 35 35 36 36 36 37 37 37
24 25 26 26 26 26 27 27 28 28 28 28 29 28 29 29 30 31 31 32 32 33 33 33 33 34 34 35 36 36 37 37 37 37 38 38 38 39 40 40 39 39 39
27 27 27 28 29 30 30 31 31 31 31 31 31 31 31 31 32 33 34 34 34 34 35 36 36 37 37 38 39 40 40 40 40 41 41 41 41 42 43 43 42 42 41
29 29 30 30 31 32 33 33 34 34 34 34 34 34 35 35 35 35 35 36 36 36 37 38 39 40 40 41 42 42 43 43 44 44 44 44 44 44 45 46 46 45 45
30 30 31 32 33 34 34 34 35 35 36 36 36 37 37 37 37 37 37 38 38 39 39 41 42 42 43 44 44 45 46 47 48 47 47 48 48 47 48 48 48 48 48
28 30 32 32 33 32 32 34 35 35 35 36 37 38 38 39 38 39 39 40 40 41 42 43 43 45 46 47 47 48 49 51 51 51 51 51 51 50 50 50 50 50 50
30 30 31 32 32 33 33 33 35 35 35 36 37 38 38 39 39 40 41 43 44 44 45 46 47 48 49 50 51 52 53 53 54 55 55 54 54 54 54 53 52 52 51
28 29 30 31 32 33 34 35 34 35 37 38 38 38 39 39 41 42 43 44 45 46 47 48 49 51 52 53 54 55 56 57 57 58 58 57 57 57 56 56 55 53 52
29 30 31 32 33 34 35 35 35 36 36 37 37 38 39 40 42 43 44 45 47 48 50 51 53 54 56 57 58 58 59 60 61 61 60 60 59 58 57 56 55 54 52
Wind_Direction
214 206 209 209 207 207 207 205 202 203 203 204 208 208 208 214 221 223 222 231 314 353 352 348 348 349 348 345 341 337 334 329 323 317 312 306 301 294 287 281 276 271 268
204 199 198 201 202 204 205 201 202 199 198 200 202 204 208 210 211 207 191 184 212 354 359 357 353 349 348 347 344 338 335 331 326 320 315 310 304 300 294 289 284 278 274
191 183 185 186 187 186 191 193 196 194 195 198 201 206 205 204 202 197 188 188 220 323 336 340 342 344 345 341 337 334 333 331 327 322 315 310 304 298 294 290 286 282 279
178 184 182 177 176 179 183 187 190 192 195 200 204 204 204 205 205 204 204 212 242 290 316 329 333 335 338 338 335 333 330 328 325 321 315 310 305 300 294 289 286 282 279
158 182 184 181 182 186 189 192 194 196 201 205 208 206 209 210 212 213 220 229 248 271 298 311 318 321 327 330 331 329 329 327 327 324 319 313 309 304 299 294 289 284 281
148 167 178 185 191 195 199 199 201 205 209 209 209 211 214 215 220 224 232 241 252 267 284 295 304 312 317 320 322 324 324 323 324 324 321 317 312 307 303 297 292 288 285
187 192 190 195 200 203 204 205 208 210 210 210 213 217 221 221 225 234 243 250 256 265 275 285 295 303 307 312 315 319 320 320 321 322 320 318 315 311 306 302 296 292 288
243 220 207 207 210 214 215 217 218 216 216 217 219 223 224 225 232 241 250 256 261 266 272 280 288 294 299 303 307 311 312 314 315 316 316 315 313 311 309 305 301 297 293
251 239 227 222 223 224 225 224 224 223 223 222 224 228 230 234 240 248 254 259 262 266 272 278 284 289 294 298 302 305 307 309 310 311 311 311 310 308 307 305 303 301 298
259 250 243 239 237 232 231 229 229 230 231 231 232 235 238 242 247 252 257 260 262 267 272 277 282 286 291 295 299 302 304 306 307 307 308 308 308 307 306 304 302 301 299
268 259 255 251 247 242 238 237 236 236 238 237 238 242 246 250 253 257 260 263 266 269 272 277 281 285 289 293 296 299 301 303 305 306 306 306 306 306 304 303 301 300 299
271 267 262 259 255 251 247 244 244 244 244 244 245 249 253 256 259 261 263 266 269 272 275 278 281 284 288 290 293 296 299 300 302 304 303 303 303 304 303 301 300 299 298
273 270 268 264 259 255 251 248 247 248 248 248 250 254 257 260 263 264 266 269 271 273 276 279 281 285 288 290 292 295 296 297 299 301 301 301 301 301 301 300 299 298 297
273 273 274 270 264 261 258 255 253 252 253 254 255 258 260 262 265 266 268 271 273 274 276 279 281 284 287 290 292 293 296 297 298 299 300 300 300 300 300 299 298 297 296
271 271 274 272 268 264 262 259 258 259 259 259 260 261 263 265 266 268 270 272 273 275 278 280 283 285 287 290 291 293 295 296 298 298 298 298 298 298 298 298 298 298 297
270 271 273 275 271 269 268 265 262 262 262 263 264 264 266 268 269 269 271 272 274 276 279 281 283 285 288 290 291 292 294 295 296 297 297 297 297 296 297 297 297 297 296
267 267 271 272 271 271 272 271 269 267 264 264 265 267 268 270 271 272 272 273 275 278 280 282 284 286 289 290 291 291 292 293 294 295 296 296 296 295 295 295 295 296 295
262 262 265 268 268 268 270 271 271 269 268 268 267 268 270 271 273 274 275 276 277 279 280 282 285 287 289 290 290 290 291 292 293 293 294 294 294 294 294 294 294 294 295
260 261 262 263 264 265 267 269 269 268 269 269 269 270 271 272 273 275 275 277 278 280 281 284 285 286 288 289 290 290 291 291 292 292 292 292 292 293 293 293 293 293 293
258 259 261 261 262 262 264 266 267 268 269 269 269 270 271 272 274 275 276 277 279 280 282 284 285 287 288 289 289 290 291 291 291 292 291 291 290 290 291 291 291 292 292
257 258 259 260 261 261 263 265 266 265 267 269 270 271 272 273 275 276 278 279 280 281 282 283 286 287 287 288 289 290 290 290 290 291 291 290 289 289 289 289 290 290 290
258 259 261 262 262 261 262 265 267 266 267 268 269 271 272 273 274 276 278 279 280 281 282 284 286 286 287 288 288 289 289 289 289 290 290 289 288 287 288 288 288 288 288
264 263 262 264 265 263 265 266 267 268 267 267 269 271 273 273 275 277 278 279 281 282 283 285 285 286 287 287 288 288 289 289 289 289 289 289 288 287 287 287 287 287 287
266 267 266 265 265 266 269 269 269 269 270 271 271 273 275 276 278 280 280 281 282 284 285 285 286 287 287 288 288 288 289 289 288 288 289 288 287 287 287 287 287 286 285
268 269 270 269 269 270 270 271 272 272 273 274 275 277 278 279 280 282 283 283 284 285 285 286 286 287 288 288 288 288 288 288 288 288 288 287 286 286 286 286 286 285 284
271 271 271 272 273 272 274 275 277 277 277 278 278 279 281 282 283 283 284 284 285 287 287 288 288 288 288 288 288 288 287 287 287 287 287 287 285 285 284 284 284 283 283
Height
5842 5844 5846 5849 5852 5855 5859 5862 5865 5868 5871 5873 5875 5877 5878 5879 5880 5880 5880 5880 5880 5880 5880 5879 5879 5878 5878 5877 5876 5876 5875 5874 5873 5873 5872 5871 5870 5869 5869 5868 5868 5868 5868
5843 5844 5845 5847 5850 5853 5857 5860 5863 5867 5870 5872 5874 5876 5877 5878 5879 5879 5879 5880 5880 5879 5879 5878 5878 5877 5877 5876 5875 5874 5874 5873 5872 5871 5870 5870 5869 5868 5867 5866 5865 5865 5865
5843 5844 5845 5847 5850 5853 5856 5860 5863 5866 5869 5871 5873 5875 5876 5877 5878 5878 5879 5879 5879 5879 5878 5878 5877 5877 5876 5875 5874 5873 5872 5871 5870 5869 5869 5868 5867 5866 5865 5864 5863 5862 5862
5845 5845 5847 5849 5851 5854 5857 5860 5863 5865 5868 5870 5872 5873 5875 5876 5877 5877 5878 5878 5878 5878 5877 5877 5876 5876 5875 5874 5873 5872 5871 5870 5869 5867 5866 5865 5864 5863 5862 5861 5860 5859 5859
5847 5847 5849 5851 5853 5855 5857 5860 5863 5865 5867 5869 5871 5872 5873 5874 5875 5876 5876 5877 5877 5876 5876 5876 5875 5875 5874 5873 5872 5870 5869 5868 5867 5865 5864 5862 5861 5859 5859 5858 5857 5856 5855
5848 5849 5850 5852 5853 5855 5858 5860 5862 5864 5866 5868 5869 5871 5872 5873 5874 5875 5875 5875 5875 5875 5875 5874 5874 5873 5872 5871 5870 5869 5867 5866 5864 5863 5861 5859 5858 5856 5855 5854 5852 5852 5851
5849 5850 5851 5852 5854 5855 5857 5859 5861 5863 5864 5866 5868 5869 5870 5871 5872 5873 5873 5873 5873 5873 5873 5873 5872 5871 5870 5869 5868 5867 5865 5863 5862 5860 5858 5856 5855 5853 5851 5850 5848 5847 5846
5850 5851 5851 5852 5854 5855 5857 5858 5860 5862 5863 5865 5866 5867 5868 5869 5870 5870 5871 5871 5871 5871 5871 5871 5870 5869 5868 5867 5866 5864 5862 5861 5859 5857 5855 5853 5851 5849 5847 5846 5844 5843 5841
5850 5851 5851 5852 5853 5854 5855 5857 5859 5860 5861 5862 5864 5865 5866 5867 5868 5868 5869 5869 5869 5869 5868 5868 5867 5866 5865 5864 5863 5861 5859 5857 5855 5854 5851 5849 5847 5845 5843 5841 5839 5838 5836
5849 5850 5850 5851 5852 5852 5854 5855 5857 5858 5858 5860 5861 5863 5864 5864 5865 5866 5866 5866 5866 5866 5865 5865 5864 5863 5862 5860 5859 5857 5855 5853 5851 5849 5847 5845 5843 5841 5838 5836 5834 5832 5830
5848 5848 5848 5849 5850 5851 5852 5853 5854 5855 5857 5858 5859 5860 5861 5861 5862 5862 5862 5862 5862 5862 5861 5861 5860 5859 5857 5856 5854 5852 5850 5848 5846 5844 5842 5840 5838 5835 5833 5831 5828 5826 5824
5845 5846 5846 5847 5847 5848 5849 5850 5851 5852 5854 5855 5856 5856 5857 5858 5858 5858 5858 5858 5858 5857 5857 5856 5855 5854 5852 5851 5849 5847 5845 5843 5841 5839 5837 5834 5832 5830 5827 5825 5823 5820 5818
5842 5843 5843 5843 5844 5845 5846 5847 5848 5849 5850 5851 5852 5852 5853 5853 5853 5854 5854 5853 5853 5852 5851 5850 5849 5848 5846 5845 5843 5841 5839 5837 5835 5832 5830 5828 5826 5823 5821 5818 5816 5814 5811
5839 5839 5840 5840 5840 5841 5842 5842 5843 5844 5845 5846 5846 5847 5848 5848 5848 5848 5848 5848 5847 5846 5845 5844 5843 5841 5840 5838 5836 5834 5832 5830 5828 5825 5823 5821 5819 5816 5813 5811 5808 5806 5803
5836 5836 5836 5836 5836 5836 5837 5837 5838 5839 5840 5840 5841 5841 5842 5842 5842 5842 5842 5841 5840 5839 5838 5837 5836 5834 5833 5831 5829 5827 5825 5823 5820 5818 5815 5813 5811 5808 5805 5803 5800 5798 5795
5831 5831 5832 5831 5831 5832 5832 5833 5833 5833 5834 5835 5835 5835 5836 5836 5835 5835 5835 5834 5833 5832 5831 5830 5828 5827 5825 5823 5821 5819 5816 5814 5812 5809 5807 5804 5802 5800 5797 5794 5791 5789 5786
5827 5827 5827 5827 5827 5827 5827 5827 5828 5828 5828 5828 5829 5829 5829 5829 5828 5828 5828 5827 5826 5825 5824 5822 5820 5819 5817 5815 5813 5810 5808 5805 5803 5801 5798 5795 5793 5790 5788 5785 5782 5779 5776
5821 5821 5821 5822 5822 5822 5822 5822 5822 5822 5822 5822 5821 5822 5821 5821 5821 5821 5820 5819 5818 5817 5815 5814 5812 5810 5808 5806 5804 5801 5798 5796 5794 5791 5789 5786 5783 5780 5777 5775 5772 5769 5766
5815 5815 5815 5815 5815 5815 5816 5816 5815 5815 5815 5815 5814 5814 5814 5813 5813 5812 5811 5810 5809 5808 5806 5805 5803 5801 5799 5796 5794 5791 5788 5786 5783 5781 5778 5776 5773 5770 5766 5763 5761 5758 5755
5808 5808 5808 5808 5808 5808 5809 5808 5808 5808 5807 5807 5806 5806 5805 5805 5804 5803 5802 5801 5800 5798 5796 5795 5793 5790 5788 5786 5783 5780 5777 5775 5772 5770 5767 5764 5761 5758 5755 5752 5749 5746 5744
5799 5800 5800 5800 5800 5800 5800 5800 5799 5799 5799 5798 5798 5797 5796 5796 5795 5794 5792 5791 5789 5788 5786 5784 5782 5779 5777 5774 5771 5768 5765 5763 5760 5757 5754 5752 5749 5746 5742 5739 5736 5734 5731
5791 5791 5791 5791 5791 5791 5791 5790 5790 5789 5789 5789 5788 5787 5786 5785 5784 5783 5782 5780 5779 5777 5774 5772 5770 5767 5764 5762 5758 5755 5752 5749 5746 5744 5741 5738 5735 5732 5729 5726 5723 5720 5716
5783 5783 5783 5782 5782 5781 5781 5781 5780 5780 5779 5779 5778 5777 5776 5775 5773 5772 5770 5769 5767 5764 5762 5760 5757 5754 5751 5748 5745 5741 5738 5734 5731 5728 5726 5723 5719 5716 5714 5711 5708 5704 5701
5775 5775 5774 5774 5773 5773 5772 5771 5770 5770 5769 5769 5768 5767 5766 5764 5762 5760 5759 5757 5754 5752 5749 5746 5743 5740 5737 5733 5730 5726 5723 5719 5715 5713 5710 5707 5703 5700 5697 5694 5691 5688 5686
5767 5767 5766 5765 5765 5764 5763 5763 5761 5760 5759 5758 5757 5756 5754 5753 5750 5748 5746 5744 5741 5738 5735 5732 5729 5726 5722 5718 5715 5710 5707 5703 5699 5695 5692 5689 5686 5683 5680 5677 5674 5672 5670
5759 5758 5757 5757 5756 5755 5754 5753 5752 5750 5749 5748 5746 5745 5743 5741 5739 5736 5733 5730 5728 5724 5721 5717 5713 5710 5706 5702 5698 5694 5690 5686 5681 5677 5674 5671 5668 5665 5662 5659 5657 5655 5653